Weather History for Moab, UT

Change the Weather History Date:

Sunday, March 18, 2012

  Actual Average Record
Temperature  
Mean Temperature 45 °F 45 °F  
Max Temperature 59 °F 59 °F 80 °F (1972)
Min Temperature 31 °F 31 °F 21 °F (1952)
Degree Days  
Heating Degree Days 20 20  
Month to date heating degree days 355 402  
Since 1 July heating degree days 4545 4811  
Cooling Degree Days 0 0  
Month to date cooling degree days 0 0  
Year to date cooling degree days 0 0  
Moisture  
Dew Point 29 °F    
Average Humidity 51    
Maximum Humidity 78    
Minimum Humidity 23    
Precipitation  
Precipitation 0.05 in 0.02 in 0.65 in (1943)
Month to date precipitation 0.06 0.45  
Year to date precipitation 0.61 1.61  
Sea Level Pressure  
Sea Level Pressure 29.46 in    
Wind  
Wind Speed 18 mph (SSW)    
Max Wind Speed 43 mph    
Max Gust Speed 51 mph    
Visibility 8 miles    
Events Rain , Snow    
T = Trace of Precipitation, MM = Missing Value Source: NWS Daily Summary

Daily Weather History Graph

Daily Weather History Graph

Search for Another Location

Airport:

Trip Planner

Search our weather history database for the weather conditions in past years. The results will help you decide how hot, cold, wet, or windy it might be!

Date:

Astronomy

Mar. 18, 2012 Rise Set
Actual Time 7:24 AM MDT 7:29 PM MDT
Civil Twilight 6:58 AM MDT 7:56 PM MDT
Nautical Twilight 6:27 AM MDT 8:27 PM MDT
Astronomical Twilight 5:55 AM MDT 8:58 PM MDT
Moon 5:03 AM MDT (3/18) 4:01 PM MDT (3/18)
Length of Visible Light 12h 57m
Length of Day
12h 04m
Waning Crescent, 14% of the Moon is Illuminated
Mar 18
Waning Crescent
Mar 22
New
Mar 30
First Quarter
Apr 6
Full
Apr 13
Last Quarter

Hourly Weather History & Observations

Time (MDT) Temp. Windchill Dew Point Humidity Pressure Visibility Wind Dir Wind Speed Gust Speed Precip Events Conditions
12:53 AM 59.0 °F - 21.0 °F 23% 29.39 in 10.0 mi South 24.2 mph 36.8 mph N/A   Clear
1:53 AM 57.9 °F - 21.9 °F 25% 29.37 in 10.0 mi South 21.9 mph 29.9 mph N/A   Mostly Cloudy
2:53 AM 57.0 °F - 21.0 °F 25% 29.36 in 10.0 mi South 25.3 mph 34.5 mph N/A   Overcast
3:53 AM 55.9 °F - 23.0 °F 28% 29.34 in 10.0 mi South 33.4 mph 42.6 mph N/A   Overcast
4:53 AM 55.0 °F - 24.1 °F 30% 29.33 in 10.0 mi South 18.4 mph 32.2 mph N/A   Overcast
5:53 AM 54.0 °F - 24.1 °F 31% 29.32 in 10.0 mi South 24.2 mph 34.5 mph N/A   Mostly Cloudy
6:53 AM 52.0 °F - 27.0 °F 38% 29.34 in 10.0 mi South 19.6 mph 33.4 mph N/A   Overcast
7:53 AM 48.9 °F - 30.9 °F 50% 29.34 in 10.0 mi South 13.8 mph 20.7 mph N/A   Unknown
8:53 AM 52.0 °F - 27.0 °F 38% 29.32 in 10.0 mi South 24.2 mph 31.1 mph N/A   Overcast
9:53 AM 52.0 °F - 30.0 °F 43% 29.30 in 10.0 mi SSE 16.1 mph - N/A   Overcast
10:53 AM 53.1 °F - 27.0 °F 37% 29.27 in 10.0 mi South 21.9 mph 36.8 mph N/A   Overcast
11:04 AM 46.4 °F 38.1 °F 39.2 °F 76% 29.40 in 9.0 mi West 24.2 mph - N/A Rain Light Rain
11:45 AM 41.0 °F 32.8 °F 37.4 °F 87% 29.44 in 7.0 mi SSW 16.1 mph - 0.02 in Rain Light Rain
11:53 AM 41.0 °F 32.5 °F 37.0 °F 86% 29.37 in 9.0 mi SSW 17.3 mph 25.3 mph 0.03 in Rain Light Rain
12:18 PM 42.8 °F 36.6 °F 37.4 °F 81% 29.45 in 10.0 mi South 11.5 mph - 0.00 in Rain Light Rain
12:53 PM 44.1 °F 37.1 °F 36.0 °F 73% 29.38 in 10.0 mi SSW 15.0 mph 24.2 mph 0.01 in   Overcast
1:13 PM 44.6 °F 35.7 °F 37.4 °F 76% 29.45 in 10.0 mi SSW 24.2 mph 31.1 mph N/A   Overcast
1:29 PM 44.6 °F 36.1 °F 35.6 °F 71% 29.47 in 10.0 mi SSW 21.9 mph 29.9 mph N/A   Overcast
1:53 PM 44.1 °F 36.5 °F 34.0 °F 68% 29.39 in 10.0 mi SW 17.3 mph - N/A   Overcast
2:53 PM 45.0 °F 38.2 °F 30.9 °F 58% 29.38 in 10.0 mi South 15.0 mph 23.0 mph N/A   Mostly Cloudy
3:53 PM 44.6 °F 36.1 °F 26.6 °F 49% 29.46 in 10.0 mi SSW 21.9 mph 29.9 mph N/A   Scattered Clouds
4:53 PM 39.9 °F 30.2 °F 30.0 °F 68% 29.44 in 10.0 mi SSW 20.7 mph 25.3 mph 0.00 in   Scattered Clouds
5:53 PM 37.0 °F 25.9 °F 28.0 °F 70% 29.49 in 2.5 mi SW 23.0 mph 35.7 mph 0.00 in Snow Light Snow
5:57 PM 35.6 °F 25.9 °F 28.4 °F 75% 29.55 in 1.2 mi SSW 16.1 mph 34.5 mph 0.00 in Snow Light Snow
6:07 PM 35.6 °F 27.1 °F 30.2 °F 81% 29.53 in 4.0 mi SSW 12.7 mph - 0.00 in Snow Light Snow
6:53 PM 39.9 °F 32.1 °F 27.0 °F 60% 29.48 in 10.0 mi SSW 13.8 mph - 0.00 in   Mostly Cloudy
7:53 PM 39.0 °F 31.0 °F 24.1 °F 55% 29.52 in 10.0 mi SSW 13.8 mph - N/A   Clear
8:27 PM 33.8 °F 19.9 °F 28.4 °F 81% 29.58 in 1.8 mi WSW 31.1 mph 40.3 mph 0.00 in Snow Light Snow
8:31 PM 32.0 °F 18.9 °F 28.4 °F 87% 29.60 in 1.0 mi West 24.2 mph 40.3 mph 0.01 in Snow Light Snow
8:34 PM 30.2 °F 17.4 °F 28.4 °F 93% 29.62 in 0.8 mi WSW 20.7 mph 39.1 mph 0.01 in Snow Light Snow
8:43 PM 30.2 °F 18.9 °F 28.4 °F 93% 29.62 in 0.8 mi WSW 16.1 mph - 0.01 in Snow Light Snow
8:45 PM 30.2 °F 19.8 °F 28.4 °F 93% 29.62 in 1.0 mi WSW 13.8 mph - 0.01 in Snow Light Snow
8:53 PM 30.9 °F 22.8 °F 28.9 °F 92% 29.60 in 2.5 mi SSW 9.2 mph - 0.01 in Snow Light Snow
9:00 PM 30.2 °F 22.6 °F 28.4 °F 93% 29.61 in 3.0 mi South 8.1 mph - 0.00 in Snow Light Snow
9:11 PM 30.2 °F 24.3 °F 28.4 °F 93% 29.61 in 8.0 mi SSW 5.8 mph - 0.00 in Snow Light Snow
9:53 PM 33.1 °F 23.4 °F 26.1 °F 75% 29.58 in 10.0 mi South 13.8 mph - 0.00 in   Scattered Clouds
10:53 PM 32.0 °F 24.2 °F 27.0 °F 82% 29.61 in 10.0 mi SE 9.2 mph - N/A   Clear
11:53 PM 33.1 °F 25.5 °F 25.0 °F 72% 29.64 in 10.0 mi South 9.2 mph - N/A   Clear